Flag for Romania Weather past 2 weeks in Iasi, Romania

Now
70 °F

Clear.


Feels Like: 70 °F
Forecast: 62 / 85 °F
Wind: 17 mph from Northwest

Location: Iasi Airport

Current Time: May 24, 2015 at 10:44:50 PM

Latest Report: May 24, 2015 at 10:00 PM


Visibility: 10 mi

Pressure: 29.86 "Hg

Humidity: 73%

Dew point: 61 °F

Location of IasiLocation

Historic Weather in Iasi — Graph

°F

Iasi temperature yesterday

Maximum temperature yesterday: 82 °F (at 4:00 PM)
Minimum temperature yesterday: 55 °F (at 5:00 AM)
Average temperature yesterday: 70 °F

Past Weeks' High & Low Weather Summary

 TemperatureHumidityPressure
High84 °F (May 24, 4:00 PM)100% (May 23, 5:00 AM)30.30 "Hg (May 23, 5:00 AM)
Low45 °F (May 10, 4:00 AM)23% (May 10, 6:30 PM)29.62 "Hg (May 14, 5:00 PM)
Average66 °F56%30.00 "Hg
* Reported May 9 9:00 PM — May 24 9:00 PM, Iasi, Weather by CustomWeather, © 2015

Note: Actual official high and low records may vary slightly from our data, if they occured in-between our weather recording intervals... More about our weather records

Advertising

Iasi weather history for previous 24 hours

 ConditionsComfort  
Time TempWeatherWind HumidityBarometerVisibility
9:00 PM
Sun, May 24
73 °FSunny.16 mph69%29.83 "Hg10 mi
8:30 PM77 °FSunny.13 mph61%29.83 "Hg10 mi
8:00 PM81 °FSunny.8 mph42%29.83 "Hg10 mi
7:30 PM82 °FSunny.No wind40%29.83 "Hg10 mi
7:00 PM84 °FSunny.6 mph33%29.83 "Hg10 mi
6:30 PM84 °FPassing clouds.3 mph33%29.83 "HgN/A
6:00 PM84 °FPassing clouds.6 mph33%29.83 "HgN/A
5:30 PM84 °FPassing clouds.7 mph31%29.83 "HgN/A
5:00 PM84 °FPassing clouds.3 mph37%29.83 "HgN/A
4:30 PM84 °FPassing clouds.8 mph37%29.86 "HgN/A
4:00 PM84 °FPassing clouds.9 mph40%29.86 "HgN/A
3:30 PM82 °FPassing clouds.6 mph42%29.86 "HgN/A
3:00 PM82 °FPassing clouds.7 mph42%29.86 "HgN/A
2:30 PM81 °FPassing clouds.6 mph45%29.86 "HgN/A
2:00 PM81 °FSunny.8 mph45%29.89 "Hg10 mi
1:30 PM81 °FPassing clouds.8 mph42%29.89 "HgN/A
1:00 PM79 °FPassing clouds.8 mph48%29.89 "HgN/A
12:30 PM77 °FPassing clouds.8 mph54%29.89 "HgN/A
12:00 PM77 °FPassing clouds.9 mph54%29.89 "HgN/A
11:30 AM75 °FPassing clouds.10 mph61%29.89 "HgN/A
11:00 AM73 °FPassing clouds.8 mph65%29.89 "HgN/A
10:30 AM73 °FPassing clouds.7 mph65%29.89 "HgN/A
10:00 AM72 °FPassing clouds.6 mph69%29.89 "HgN/A
9:30 AM68 °FPassing clouds.6 mph78%29.89 "HgN/A
9:00 AM66 °FPassing clouds.7 mph83%29.89 "HgN/A
8:30 AM64 °FPassing clouds.7 mph88%29.89 "HgN/A
8:00 AM64 °FPassing clouds.6 mph83%29.89 "HgN/A
7:30 AM61 °FPassing clouds.5 mph88%29.89 "HgN/A
7:00 AM59 °FSunny.5 mph88%29.89 "Hg10 mi
6:30 AM59 °FSunny.5 mph88%29.89 "Hg10 mi
5:30 AM57 °FClear.5 mph94%29.86 "Hg10 mi
5:00 AM57 °FClear.5 mph88%29.86 "Hg10 mi
4:00 AM61 °FClear.2 mph72%29.86 "Hg10 mi
3:00 AM63 °FClear.No wind59%29.86 "Hg10 mi
2:00 AM64 °FClear.2 mph56%29.86 "Hg10 mi
1:00 AM66 °FPassing clouds.2 mph56%29.86 "HgN/A
12:00 AM68 °FClear.3 mph49%29.86 "Hg10 mi
11:00 PM
Sat, May 23
70 °FClear.No wind43%29.86 "Hg10 mi
10:00 PM73 °FClear.5 mph41%29.86 "Hg10 mi
Weather by CustomWeather, © 2015

See weather overviewHow to use our weather pages